Statesboro, GA

5:14 PM EDT on June 28, 2017 (GMT -0400)
Statesboro-Bulloch County

Weather History for KTBR - June, 2013

Change the Weather History Date:

Thursday, June 27, 2013

  Actual Average (KSBO) Record (KSBO)
Temperature  
Mean Temperature 83 °F -  
Max Temperature 92 °F 91 °F 93 °F (2014)
Min Temperature 74 °F 68 °F 68 °F (2017)
Cooling Degree Days 18    
Growing Degree Days 33 (Base 50)    
Moisture  
Dew Point 69 °F    
Average Humidity 68    
Maximum Humidity 95    
Minimum Humidity 39    
Precipitation  
Precipitation 0.00 in - - ()
Sea Level Pressure  
Sea Level Pressure 29.93 in    
Wind  
Wind Speed 7 mph (WSW)    
Max Wind Speed 14 mph    
Max Gust Speed 20 mph    
Visibility 10 miles    
Events Rain , Thunderstorm    
Averages and records for this station are not official NWS values.
T = Trace of Precipitation, MM = Missing Value Source: NWS Daily Summary

Daily Weather History Graph

Daily Weather History Graph

Search for Another Location

Airport or City:

Trip Planner

Search our weather history database for the weather conditions in past years. The results will help you decide how hot, cold, wet, or windy it might be!

Date:

Astronomy

Jun. 27, 2013 Rise Set
Actual Time 6:21 AM EDT 8:38 PM EDT
Civil Twilight 5:53 AM EDT 9:06 PM EDT
Nautical Twilight 5:18 AM EDT 9:41 PM EDT
Astronomical Twilight 4:40 AM EDT 10:19 PM EDT
Moon 11:53 PM EDT (6/27) 11:04 AM EDT (6/27)
Length of Visible Light 15h 13m
Length of Day
14h 16m
Waning Gibbous, 76% of the Moon is Illuminated
Jun 27
Waning Gibbous
Jun 30
Last Quarter
Jul 8
New
Jul 15
First Quarter
Jul 22
Full

Hourly Weather History & Observations

Time (EDT) Temp. Heat Index Dew Point Humidity Pressure Visibility Wind Dir Wind Speed Gust Speed Precip Events Conditions
12:15 AM 76.5 °F - 69.3 °F 78% 30.00 in 10.0 mi SSW 5.8 mph - N/A   Clear
12:35 AM 76.3 °F - 68.5 °F 77% 29.99 in 10.0 mi SSW 6.9 mph - N/A   Clear
12:55 AM 76.3 °F - 68.2 °F 76% 29.98 in 10.0 mi SSW 5.8 mph - N/A   Clear
1:15 AM 75.7 °F - 68.0 °F 77% 29.99 in 10.0 mi South 4.6 mph - N/A   Clear
1:35 AM 75.6 °F - 68.0 °F 77% 29.99 in 10.0 mi SSW 4.6 mph - N/A   Clear
1:55 AM 75.2 °F - 68.0 °F 78% 29.99 in 10.0 mi SW 4.6 mph - N/A   Clear
2:15 AM 75.2 °F - 68.0 °F 78% 29.99 in 10.0 mi SSW 3.5 mph - N/A   Clear
2:35 AM 75.2 °F - 67.8 °F 78% 29.98 in 10.0 mi SSW 4.6 mph - N/A   Clear
2:55 AM 75.0 °F - 67.6 °F 78% 29.98 in 10.0 mi SSW 3.5 mph - N/A   Clear
3:15 AM 74.8 °F - 67.6 °F 78% 29.98 in 10.0 mi Calm Calm - N/A   Clear
3:35 AM 74.7 °F - 67.8 °F 79% 29.98 in 10.0 mi SW 3.5 mph - N/A   Clear
3:55 AM 74.8 °F - 68.0 °F 79% 29.98 in 10.0 mi SW 4.6 mph - N/A   Clear
4:15 AM 74.8 °F - 68.0 °F 79% 29.97 in 10.0 mi SW 4.6 mph - N/A   Clear
4:35 AM 74.7 °F - 68.4 °F 81% 29.97 in 10.0 mi SW 4.6 mph - N/A   Clear
4:55 AM 74.5 °F - 70.7 °F 88% 29.96 in 10.0 mi SW 4.6 mph - N/A   Clear
5:15 AM 74.5 °F - 72.5 °F 94% 29.96 in 10.0 mi WSW 4.6 mph - N/A   Clear
5:35 AM 74.5 °F - 72.5 °F 94% 29.97 in 10.0 mi SW 4.6 mph - N/A   Clear
5:55 AM 74.3 °F - 72.5 °F 94% 29.97 in 10.0 mi SW 5.8 mph - N/A   Scattered Clouds
6:15 AM 74.3 °F - 72.7 °F 95% 29.98 in 10.0 mi WSW 3.5 mph - N/A   Clear
6:35 AM 74.3 °F - 72.7 °F 95% 29.99 in 10.0 mi SSW 4.6 mph - N/A   Scattered Clouds
6:55 AM 74.7 °F - 73.0 °F 95% 29.99 in 10.0 mi SW 5.8 mph - N/A   Scattered Clouds
7:15 AM 75.6 °F - 73.4 °F 93% 29.99 in 10.0 mi SW 5.8 mph - N/A   Scattered Clouds
7:35 AM 76.5 °F - 73.6 °F 91% 29.98 in 10.0 mi WSW 6.9 mph - N/A   Clear
7:55 AM 77.2 °F - 74.1 °F 90% 29.98 in 10.0 mi West 6.9 mph - N/A   Scattered Clouds
8:15 AM 78.8 °F - 74.5 °F 87% 29.97 in 10.0 mi West 6.9 mph - N/A   Scattered Clouds
8:35 AM 80.1 °F 83.2 °F 70.0 °F 71% 29.98 in 10.0 mi West 9.2 mph - N/A   Scattered Clouds
8:55 AM 81.3 °F 85.0 °F 70.3 °F 69% 29.97 in 10.0 mi WSW 6.9 mph - N/A   Clear
9:15 AM 82.2 °F 86.4 °F 70.5 °F 68% 29.98 in 10.0 mi West 9.2 mph - N/A   Clear
9:35 AM 82.4 °F 86.3 °F 70.2 °F 66% 29.98 in 10.0 mi West 6.9 mph - N/A   Clear
9:55 AM 83.3 °F 87.6 °F 70.5 °F 65% 29.97 in 10.0 mi West 8.1 mph - N/A   Clear
10:15 AM 85.5 °F 90.8 °F 70.9 °F 62% 29.97 in 10.0 mi West 8.1 mph - N/A   Clear
10:35 AM 86.7 °F 91.7 °F 70.3 °F 58% 29.97 in 10.0 mi West 11.5 mph - N/A   Scattered Clouds
10:55 AM 85.5 °F 89.4 °F 69.1 °F 58% 29.96 in 10.0 mi West 11.5 mph 18.4 mph N/A   Scattered Clouds
11:15 AM 86.5 °F 90.7 °F 69.3 °F 56% 29.96 in 10.0 mi West 12.7 mph 18.4 mph N/A   Clear
11:35 AM 88.0 °F 92.1 °F 69.1 °F 53% 29.96 in 10.0 mi West 12.7 mph 19.6 mph N/A   Clear
11:55 AM 88.0 °F 92.1 °F 69.1 °F 53% 29.96 in 10.0 mi West 13.8 mph 19.6 mph N/A   Scattered Clouds
12:15 PM 88.0 °F 92.1 °F 68.7 °F 53% 29.95 in 10.0 mi West 13.8 mph - N/A   Scattered Clouds
12:35 PM 88.5 °F 92.7 °F 69.1 °F 52% 29.95 in 10.0 mi West 11.5 mph 16.1 mph N/A   Mostly Cloudy
12:55 PM 90.3 °F 94.7 °F 68.5 °F 49% 29.94 in 10.0 mi West 12.7 mph 17.3 mph N/A   Scattered Clouds
1:15 PM 90.3 °F 94.3 °F 68.0 °F 48% 29.93 in 10.0 mi West 9.2 mph 18.4 mph N/A   Scattered Clouds
1:35 PM 90.5 °F 94.2 °F 68.0 °F 47% 29.92 in 10.0 mi West 13.8 mph 19.6 mph N/A   Clear
1:55 PM 89.4 °F 92.3 °F 66.9 °F 47% 29.92 in 10.0 mi WSW 10.4 mph - N/A   Scattered Clouds
2:15 PM 91.6 °F 94.8 °F 66.9 °F 44% 29.91 in 10.0 mi WSW 9.2 mph 16.1 mph N/A   Scattered Clouds
2:35 PM 91.6 °F 94.8 °F 66.9 °F 44% 29.90 in 10.0 mi West 9.2 mph 16.1 mph N/A   Scattered Clouds
2:55 PM 91.6 °F 95.2 °F 67.5 °F 45% 29.90 in 10.0 mi WSW 11.5 mph 16.1 mph N/A   Scattered Clouds
3:15 PM 91.9 °F 95.4 °F 67.3 °F 44% 29.88 in 10.0 mi SW 9.2 mph 18.4 mph N/A   Scattered Clouds
3:35 PM 92.3 °F 93.8 °F 64.4 °F 39% 29.87 in 10.0 mi WSW 10.4 mph 18.4 mph N/A   Scattered Clouds
3:55 PM 90.7 °F 93.6 °F 66.6 °F 45% 29.87 in 10.0 mi WSW 11.5 mph - N/A   Mostly Cloudy
4:15 PM 88.7 °F 91.5 °F 66.7 °F 48% 29.86 in 7.0 mi SW 9.2 mph - N/A Thunderstorm Mostly Cloudy
4:35 PM 83.1 °F 86.6 °F 68.7 °F 62% 29.87 in 5.0 mi Calm Calm - N/A Rain , Thunderstorm Light Thunderstorms and Rain
4:55 PM 81.1 °F 84.0 °F 68.4 °F 65% 29.88 in 10.0 mi WSW 10.4 mph - N/A Thunderstorm Thunderstorm
5:15 PM 80.8 °F 82.9 °F 66.2 °F 61% 29.87 in 10.0 mi WSW 8.1 mph - N/A Thunderstorm Thunderstorm
5:35 PM 82.9 °F 85.0 °F 65.7 °F 56% 29.86 in 10.0 mi WSW 11.5 mph - N/A   Clear
5:55 PM 83.5 °F 84.7 °F 63.7 °F 51% 29.87 in 10.0 mi SW 9.2 mph - N/A   Clear
6:15 PM 81.7 °F 82.9 °F 63.1 °F 53% 29.87 in 10.0 mi SW 9.2 mph - N/A   Clear
6:35 PM 81.7 °F 83.3 °F 64.8 °F 56% 29.86 in 10.0 mi SSW 9.2 mph - N/A   Clear
6:55 PM 81.1 °F 83.2 °F 65.8 °F 60% 29.85 in 10.0 mi SSW 6.9 mph - N/A   Clear
7:15 PM 81.1 °F 83.4 °F 66.4 °F 61% 29.85 in 10.0 mi SW 5.8 mph - N/A   Scattered Clouds
7:35 PM 81.9 °F 84.4 °F 67.3 °F 61% 29.84 in 10.0 mi SW 5.8 mph - N/A   Scattered Clouds
7:55 PM 81.5 °F 84.2 °F 67.8 °F 63% 29.83 in 10.0 mi SW 5.8 mph - N/A   Clear
8:15 PM 80.8 °F 83.5 °F 68.0 °F 65% 29.84 in 10.0 mi WSW 5.8 mph - N/A   Clear
8:35 PM 80.6 °F 83.4 °F 68.2 °F 66% 29.85 in 10.0 mi SW 5.8 mph - N/A   Clear
8:55 PM 80.1 °F 82.8 °F 68.7 °F 68% 29.87 in 10.0 mi WSW 4.6 mph - N/A   Scattered Clouds
9:15 PM 80.1 °F 82.9 °F 68.9 °F 69% 29.87 in 10.0 mi WSW 6.9 mph - N/A   Mostly Cloudy
9:35 PM 79.7 °F - 69.1 °F 70% 29.86 in 10.0 mi SW 5.8 mph - N/A   Scattered Clouds
9:55 PM 79.2 °F - 69.4 °F 72% 29.85 in 10.0 mi SSW 5.8 mph - N/A   Clear
10:15 PM 79.3 °F - 69.4 °F 72% 29.85 in 10.0 mi SSW 5.8 mph - N/A   Clear
10:35 PM 79.3 °F - 69.8 °F 72% 29.85 in 10.0 mi SW 8.1 mph - N/A   Clear
10:55 PM 79.3 °F - 69.1 °F 71% 29.86 in 10.0 mi SW 9.2 mph - N/A   Clear
11:15 PM 78.8 °F - 68.9 °F 72% 29.87 in 10.0 mi WSW 5.8 mph - N/A   Clear
11:35 PM 78.8 °F - 68.9 °F 72% 29.88 in 10.0 mi WSW 6.9 mph - N/A   Clear
11:55 PM 78.3 °F - 68.9 °F 73% 29.88 in 10.0 mi WSW 5.8 mph - N/A   Clear